[[{"header":{"parameterUnit":"m.s-1","parameterCategory":1,"la1":30.2991,"la2":30.254,"lo1":-89.0895,"lo2":-89.0444,"dy":0.0017,"dx":0.0017,"nx":28,"ny":28,"refTime":"2025-01-19T03:00:00:Z","depth":0,"parameterNumber":2,"parameterNumberName":"U-component_of_WINDS"},"data":[0,0,0,0,0,0,0,0,0,0,0,0,0,0,0,0,0,0,0,0,0,0,0,0,0,0,0,0,0,0,0,0,0,0,0,0,0,0,0,0,0,0,0,0,0,0,0,0,0,0,0,0,0,0,0,0,0,0,-2.133,-2.133,0,-2.131,-2.131,-2.131,-2.1251,-2.125,-2.1248,-2.1247,-2.1229,-2.123,-2.123,0,0,0,0,0,0,0,0,0,0,0,0,0,-2.1318,-2.1318,-2.133,-2.133,-2.1329,-2.131,-2.131,-2.131,-2.1251,-2.125,-2.1248,-2.1246,-2.1229,-2.123,-2.1231,0,0,0,0,0,0,0,0,0,0,0,0,0,-2.1313,-2.1319,-2.133,-2.1298,-2.1295,-2.131,-2.131,-2.131,-2.1251,-2.1249,-2.1248,-2.1246,-2.1228,-2.123,-2.1231,-2.1276,0,0,-2.1234,-2.1234,0,0,0,0,0,0,0,0,-2.1314,-2.1314,-2.1303,-2.13,-2.1297,-2.1281,-2.1299,-2.1299,-2.1252,-2.1268,-2.1247,-2.1245,-2.1248,-2.1247,-2.1248,-2.1276,-2.1275,-2.1234,-2.1235,-2.1235,-2.1236,0,0,0,0,0,0,0,-2.1314,-2.1314,-2.1322,-2.1303,-2.1299,-2.1285,-2.1282,-2.1299,-2.1269,-2.1266,-2.1262,-2.126,-2.1246,-2.1247,-2.1247,-2.1275,-2.1234,-2.1235,-2.1236,-2.1236,-2.1339,-2.1341,0,0,0,0,0,0,-2.1319,-2.1315,-2.1323,-2.1321,-2.13,-2.1287,-2.1283,-2.1288,-2.1269,-2.1264,-2.1262,-2.1258,-2.1246,-2.1246,-2.1246,-2.1299,-2.1235,-2.1236,-2.1237,-2.1337,-2.134,-2.1342,0,0,0,0,0,0,-2.1319,-2.132,-2.1323,-2.1317,-2.1316,-2.1289,-2.1294,-2.1289,-2.129,-2.1266,-2.126,-2.1269,-2.1245,-2.1245,-2.1269,-2.1298,-2.1237,-2.1238,-2.1335,-2.1338,-2.1341,-2.1405,0,0,0,0,0,0,-2.1319,-2.132,-2.1337,-2.1318,-2.1317,-2.1347,-2.1296,-2.129,-2.1292,-2.1286,-2.127,-2.1266,-2.1243,-2.1268,-2.1271,-2.1298,-2.1239,-2.1332,-2.1336,-2.134,-2.1401,-2.141,-2.1419,0,0,0,0,0,-2.1318,-2.1356,-2.1338,-2.134,-2.1337,-2.1348,-2.1348,-2.132,-2.1294,-2.1311,-2.1295,-2.1266,-2.1294,-2.1271,-2.1273,-2.1302,-2.133,-2.1335,-2.134,-2.1397,-2.1408,-2.1418,0,0,0,0,0,0,-2.1381,-2.1353,-2.1333,-2.1366,-2.136,-2.1338,-2.1359,-2.1334,-2.1336,-2.133,-2.1296,-2.1293,-2.1323,-2.1315,-2.1289,-2.1345,-2.1307,-2.1313,-2.135,-2.1361,-2.137,-2.1372,-2.124,0,0,0,0,0,-2.1398,-2.1409,-2.1384,-2.1416,-2.1414,-2.1387,-2.1391,-2.137,-2.1363,-2.136,-2.1346,-2.1341,-2.1348,-2.1354,-2.1359,-2.1399,-2.1395,-2.1419,-2.1428,-2.1436,-2.1441,-2.1462,-2.1473,-2.1357,-2.1357,-2.1357,0,0,-2.1434,-2.1421,-2.143,-2.1428,-2.1421,-2.1433,-2.1385,-2.14,-2.141,-2.1362,-2.1385,-2.1375,-2.1366,-2.1399,-2.1412,-2.1393,-2.1472,-2.1442,-2.1448,-2.1449,-2.1468,-2.1479,-2.1489,-2.1361,-2.136,-2.1359,0,0,-2.1507,-2.1498,-2.1523,-2.1517,-2.1506,-2.1488,-2.1494,-2.1476,-2.1468,-2.1489,-2.1454,-2.1465,-2.1478,-2.1474,-2.1474,-2.1544,-2.1518,-2.1547,-2.1595,-2.1615,-2.1625,-2.1632,-2.1659,-2.1668,-2.1552,-2.1552,-2.1553,0,-2.1554,-2.1571,-2.1539,-2.1557,-2.1557,-2.1514,-2.154,-2.1535,-2.1528,-2.153,-2.1507,-2.1523,-2.1514,-2.1546,-2.1563,-2.1564,-2.157,-2.1549,-2.1626,-2.1633,-2.164,-2.1665,-2.1675,-2.1556,-2.1556,-2.1555,-2.1555,0,-2.1629,-2.1642,-2.1663,-2.1656,-2.1659,-2.1681,-2.1653,-2.166,-2.1638,-2.1623,-2.1646,-2.1634,-2.1636,-2.1642,-2.1622,-2.167,-2.1658,-2.1631,-2.1593,-2.1656,-2.1678,-2.1687,-2.1561,-2.156,-2.1559,-2.1558,0,0,-2.1742,-2.1717,-2.1725,-2.1722,-2.1707,-2.1716,-2.1736,-2.1737,-2.1744,-2.174,-2.1756,-2.1768,-2.1743,-2.1743,-2.1721,-2.174,-2.1798,-2.171,-2.171,-2.1728,-2.1852,-2.1873,-2.1884,-2.1779,-2.1781,-2.1782,-2.1853,0,-2.1812,-2.1844,-2.1816,-2.1853,-2.1864,-2.1823,-2.184,-2.1834,-2.1819,-2.1827,-2.1812,-2.1821,-2.1787,-2.1786,-2.1802,-2.1787,-2.1822,-2.1781,-2.1795,-2.1796,-2.18,-2.1896,-2.1918,-2.1985,-2.1861,-2.1863,-2.1864,0,-2.1898,-2.1897,-2.1936,-2.1918,-2.1922,-2.1938,-2.1937,-2.1945,-2.1936,-2.1925,-2.1924,-2.1898,-2.1916,-2.1878,-2.1904,-2.1877,-2.188,-2.1874,-2.1876,-2.1877,-2.1835,-2.1901,-2.2006,-2.2017,-2.1877,-2.1876,-2.1875,0,-2.1978,-2.1986,-2.201,-2.2008,-2.1988,-2.2,-2.1993,-2.1982,-2.1985,-2.1984,-2.1986,-2.1988,-2.199,-2.1992,-2.1967,-2.1941,-2.1997,-2.1956,-2.1989,-2.199,-2.2003,-2.2003,-2.2112,-2.2004,-2.2004,-2.2004,-2.2004,0,-2.2059,-2.2085,-2.2046,-2.2061,-2.2088,-2.2056,-2.2084,-2.2072,-2.2063,-2.2075,-2.204,-2.2052,-2.2018,-2.2028,-2.2008,-2.2033,-2.2034,-2.2026,-2.2021,-2.203,-2.2031,-2.2033,-2.2028,-2.2006,-2.2006,-2.2005,-2.2005,0,-2.2153,-2.2128,-2.2152,-2.2131,-2.2126,-2.2147,-2.2129,-2.2143,-2.2126,-2.2142,-2.2144,-2.2118,-2.2127,-2.2102,-2.2108,-2.2094,-2.2131,-2.2118,-2.2134,-2.213,-2.2165,-2.2163,-2.228,-2.2294,-2.2176,-2.2177,-2.2178,0,-2.2208,-2.2226,-2.2207,-2.2212,-2.2206,-2.2216,-2.2218,-2.2187,-2.2191,-2.2182,-2.2197,-2.2203,-2.2206,-2.2223,-2.2205,-2.2209,-2.2196,-2.2237,-2.2197,-2.2205,-2.2198,-2.2198,-2.22,-2.2246,-2.2247,-2.2248,-2.2249,0,-2.2307,-2.2294,-2.2298,-2.2299,-2.2303,-2.2302,-2.2298,-2.2305,-2.2271,-2.2278,-2.2286,-2.2289,-2.2294,-2.2301,-2.2301,-2.2293,-2.2267,-2.2262,-2.227,-2.228,-2.2289,-2.2286,-2.2158,-2.226,-2.2259,-2.2258,-2.2257,-2.2257,-2.2384,-2.2399,-2.2387,-2.2394,-2.2387,-2.2385,-2.2397,-2.2381,-2.2387,-2.2388,-2.2369,-2.2382,-2.2373,-2.237,-2.2366,-2.2376,-2.2357,-2.2369,-2.2372,-2.2375,-2.2382,-2.2286,-2.2375,-2.2375,-2.2375,-2.2374,-2.2374,0,-2.2483,-2.2473,-2.2479,-2.2475,-2.248,-2.2453,-2.2447,-2.2454,-2.2465,-2.2459,-2.2462,-2.2472,-2.2479,-2.2461,-2.2465,-2.2476,-2.2464,-2.2478,-2.2478,-2.2477,-2.2397,-2.2391,-2.2488,-2.2488,-2.2488,-2.2488,-2.2488,-2.2488,-2.2535,-2.2558,-2.2543,-2.2564,-2.2554,-2.2565,-2.2565,-2.2563,-2.2557,-2.257,-2.2575,-2.2562,-2.2552,-2.2554,-2.2559,-2.2554,-2.2557,-2.2577,-2.2567,-2.2494,-2.2482,-2.2472,-2.2465,-2.2577,-2.2577,-2.2646,-2.2647,-2.2647]},{"header":{"parameterUnit":"m.s-1","parameterCategory":1,"la1":30.2991,"la2":30.254,"lo1":-89.0895,"lo2":-89.0444,"dy":0.0017,"dx":0.0017,"nx":28,"ny":28,"refTime":"2025-01-19T03:00:00:Z","depth":0,"parameterNumber":3,"parameterNumberName":"V-component_of_WINDS"},"data":[0,0,0,0,0,0,0,0,0,0,0,0,0,0,0,0,0,0,0,0,0,0,0,0,0,0,0,0,0,0,0,0,0,0,0,0,0,0,0,0,0,0,0,0,0,0,0,0,0,0,0,0,0,0,0,0,0,0,-4.7685,-4.7685,0,-4.7735,-4.7736,-4.7736,-4.77,-4.7698,-4.7697,-4.7695,-4.7743,-4.7746,-4.7748,0,0,0,0,0,0,0,0,0,0,0,0,0,-4.7554,-4.7557,-4.7685,-4.7685,-4.7686,-4.7735,-4.7736,-4.7736,-4.77,-4.7698,-4.7696,-4.7695,-4.7742,-4.7745,-4.7749,0,0,0,0,0,0,0,0,0,0,0,0,0,-4.7608,-4.7557,-4.7685,-4.7674,-4.7674,-4.7735,-4.7736,-4.7736,-4.7701,-4.7698,-4.7696,-4.7694,-4.7741,-4.7745,-4.7749,-4.7822,0,0,-4.7762,-4.7764,0,0,0,0,0,0,0,0,-4.7605,-4.7613,-4.7675,-4.7675,-4.7674,-4.7709,-4.7707,-4.7765,-4.7701,-4.769,-4.7695,-4.7692,-4.7733,-4.7738,-4.7752,-4.7825,-4.7827,-4.7762,-4.7765,-4.7766,-4.7768,0,0,0,0,0,0,0,-4.7601,-4.761,-4.7704,-4.7676,-4.7676,-4.7665,-4.7671,-4.7718,-4.7724,-4.7691,-4.7688,-4.7695,-4.7733,-4.7749,-4.7753,-4.7827,-4.7762,-4.7766,-4.7768,-4.777,-4.7963,-4.7965,0,0,0,0,0,0,-4.7599,-4.7608,-4.7703,-4.7706,-4.7633,-4.767,-4.7675,-4.77,-4.7724,-4.7725,-4.7697,-4.7693,-4.7743,-4.7749,-4.7755,-4.7843,-4.7766,-4.777,-4.7773,-4.796,-4.7963,-4.7966,0,0,0,0,0,0,-4.7596,-4.7608,-4.7701,-4.7656,-4.7667,-4.7675,-4.7703,-4.7702,-4.7718,-4.7729,-4.7729,-4.7713,-4.7741,-4.7749,-4.7806,-4.7844,-4.7772,-4.7776,-4.7957,-4.7961,-4.7965,-4.802,0,0,0,0,0,0,-4.7593,-4.7607,-4.7636,-4.7657,-4.767,-4.7753,-4.7705,-4.7705,-4.7726,-4.7721,-4.7743,-4.7744,-4.774,-4.78,-4.781,-4.7849,-4.7779,-4.7954,-4.7959,-4.7964,-4.8015,-4.8026,-4.8035,0,0,0,0,0,-4.7588,-4.7648,-4.7638,-4.7649,-4.7706,-4.7755,-4.7762,-4.7757,-4.7729,-4.7758,-4.7764,-4.7744,-4.7838,-4.7807,-4.7818,-4.7858,-4.7951,-4.7957,-4.7963,-4.8011,-4.8024,-4.8034,0,0,0,0,0,0,-4.763,-4.7651,-4.7639,-4.7708,-4.773,-4.7749,-4.7785,-4.777,-4.78,-4.7794,-4.7785,-4.779,-4.7851,-4.7859,-4.7824,-4.793,-4.789,-4.7899,-4.7923,-4.7935,-4.7945,-4.7942,-4.7783,0,0,0,0,0,-4.7648,-4.7687,-4.7702,-4.7762,-4.7774,-4.7777,-4.7798,-4.7793,-4.7814,-4.7823,-4.7834,-4.7855,-4.7889,-4.7912,-4.7944,-4.8016,-4.802,-4.8049,-4.8058,-4.8066,-4.8074,-4.8113,-4.8127,-4.7986,-4.7986,-4.7986,0,0,-4.7684,-4.77,-4.7725,-4.7771,-4.7787,-4.7827,-4.7785,-4.7829,-4.7859,-4.7829,-4.7885,-4.7893,-4.7916,-4.7981,-4.801,-4.799,-4.8114,-4.8074,-4.808,-4.8084,-4.8121,-4.8134,-4.8146,-4.799,-4.7989,-4.7989,0,0,-4.777,-4.7786,-4.7838,-4.7856,-4.7882,-4.7884,-4.7897,-4.7918,-4.7923,-4.7978,-4.7958,-4.7991,-4.8051,-4.8069,-4.8085,-4.8179,-4.8161,-4.8189,-4.8241,-4.8279,-4.8291,-4.83,-4.8335,-4.8347,-4.8197,-4.8197,-4.8197,0,-4.7812,-4.7873,-4.7866,-4.7913,-4.7933,-4.791,-4.7962,-4.7979,-4.8013,-4.8028,-4.8005,-4.808,-4.8094,-4.8163,-4.8186,-4.82,-4.8214,-4.8188,-4.829,-4.8299,-4.8308,-4.8341,-4.8354,-4.82,-4.82,-4.82,-4.8199,0,-4.7923,-4.7965,-4.8004,-4.804,-4.8065,-4.8113,-4.8114,-4.8139,-4.8131,-4.8135,-4.8193,-4.8208,-4.8244,-4.8259,-4.8251,-4.8327,-4.8315,-4.8291,-4.8251,-4.8325,-4.8356,-4.8369,-4.8205,-4.8204,-4.8203,-4.8202,0,0,-4.8038,-4.8071,-4.8085,-4.8102,-4.8128,-4.8161,-4.8208,-4.8244,-4.8267,-4.8291,-4.833,-4.8381,-4.836,-4.8379,-4.8372,-4.8406,-4.8481,-4.8378,-4.8379,-4.8398,-4.8567,-4.8586,-4.8601,-4.8468,-4.8471,-4.8473,-4.8566,0,-4.8127,-4.8212,-4.8208,-4.8287,-4.8326,-4.8305,-4.8346,-4.8366,-4.8371,-4.8405,-4.8409,-4.8447,-4.8415,-4.8426,-4.8458,-4.8465,-4.8515,-4.8458,-4.8505,-4.8507,-4.8502,-4.8617,-4.8636,-4.8724,-4.8578,-4.858,-4.8581,0,-4.8243,-4.8274,-4.8357,-4.8379,-4.8396,-4.8433,-4.8466,-4.8498,-4.8521,-4.8522,-4.8544,-4.8532,-4.8579,-4.8537,-4.8601,-4.8563,-4.8582,-4.8588,-4.8591,-4.8596,-4.855,-4.8626,-4.8751,-4.8765,-4.86,-4.8598,-4.8597,0,-4.8321,-4.8382,-4.8441,-4.8455,-4.8482,-4.8509,-4.8521,-4.8541,-4.8563,-4.8591,-4.8606,-4.8638,-4.8657,-4.8682,-4.8679,-4.8648,-4.8745,-4.8702,-4.8748,-4.8748,-4.877,-4.8769,-4.8901,-4.878,-4.878,-4.878,-4.8779,0,-4.8422,-4.8474,-4.8476,-4.8512,-4.857,-4.8564,-4.8621,-4.8629,-4.8648,-4.8684,-4.8666,-4.8701,-4.8694,-4.8728,-4.8725,-4.878,-4.8788,-4.879,-4.8789,-4.8793,-4.8793,-4.8806,-4.88,-4.8783,-4.8782,-4.8782,-4.8781,0,-4.8519,-4.8522,-4.8585,-4.8605,-4.8612,-4.8653,-4.867,-4.8704,-4.8707,-4.8754,-4.8765,-4.877,-4.8809,-4.8808,-4.8852,-4.8851,-4.8918,-4.8909,-4.8912,-4.891,-4.8956,-4.8953,-4.9103,-4.9123,-4.8987,-4.8988,-4.8989,0,-4.8584,-4.8624,-4.865,-4.8674,-4.8688,-4.8727,-4.875,-4.8745,-4.877,-4.8799,-4.8829,-4.8867,-4.8897,-4.8961,-4.8968,-4.9002,-4.8994,-4.9045,-4.8999,-4.9002,-4.8997,-4.8995,-4.9,-4.9054,-4.9055,-4.9057,-4.9058,0,-4.87,-4.87,-4.8735,-4.8771,-4.8799,-4.8827,-4.8852,-4.8872,-4.887,-4.8898,-4.8939,-4.8963,-4.9009,-4.9047,-4.9079,-4.909,-4.9074,-4.9072,-4.9084,-4.9089,-4.909,-4.9092,-4.8938,-4.9069,-4.9068,-4.9067,-4.9066,-4.9066,-4.8784,-4.882,-4.8843,-4.8883,-4.8902,-4.8926,-4.8959,-4.8967,-4.9002,-4.904,-4.9034,-4.908,-4.9101,-4.9144,-4.9158,-4.9193,-4.9175,-4.9193,-4.9198,-4.9202,-4.9208,-4.9083,-4.9198,-4.9198,-4.9198,-4.9197,-4.9197,0,-4.8901,-4.8915,-4.8952,-4.8989,-4.902,-4.9002,-4.9029,-4.9056,-4.9098,-4.9119,-4.915,-4.9197,-4.9234,-4.9244,-4.9279,-4.9305,-4.9299,-4.9315,-4.9314,-4.9317,-4.9222,-4.9208,-4.932,-4.932,-4.932,-4.932,-4.932,-4.932,-4.8965,-4.9024,-4.9027,-4.9095,-4.9108,-4.9154,-4.9171,-4.9193,-4.9211,-4.9265,-4.9296,-4.9303,-4.932,-4.9357,-4.9389,-4.9391,-4.9406,-4.9425,-4.9424,-4.9336,-4.9323,-4.9312,-4.9299,-4.9428,-4.9428,-4.9517,-4.9518,-4.9518]}]]